Miscellaneous Local Product
Issued by NWS North Platte, NE

Home | Current Version | Previous Version | Text Only | Print | Product List | Glossary On
Versions: 1 2 3 4 5 6 7 8 9 10 11 12 13 14 15 16 17 18 19 20 21 22 23 24 25 26 27 28 29 30 31 32 33 34 35 36 37 38 39 40 41 42 43 44 45 46 47 48 49 50
000
AXUS43 KLBF 161210
MISLBF


WESTERN AND NORTH CENTRAL NEBRASKA HOURLY WEATHER ROUNDUP
NATIONAL WEATHER SERVICE NORTH PLATTE NE
700 AM CDT WED AUG 16 2017

NOTE: "FAIR" INDICATES FEW OR NO CLOUDS BELOW 12,000 FEET WITH NO
SIGNIFICANT WEATHER AND/OR OBSTRUCTIONS TO VISIBILITY.

NOTE: STATIONS NOT REPORTING VARIABLES SUCH AS SKY/WEATHER OR
PRESSURE ARE PROVIDED BY RAWS AND APRS NETWORKS AND ARE NOT UNDER
NATIONAL WEATHER SERVICE QUALITY CONTROL.

...OBSERVATIONS IN AND NEAR THE EASTERN PANHANDLE OF NEBRASKA...

CITY           SKY/WX    TMP DP  RH WIND       PRES   REMARKS
PINE RIDGE     CLOUDY    61  58  90 W6        29.95R
GORDON         CLOUDY    61  59  92 N13       29.94R
CHADRON        CLOUDY    61  57  87 W3        29.97R
ALLIANCE       CLOUDY    58  56  93 NW9       29.96S
SIDNEY         CLOUDY    58  57  97 NW9       30.00R
CRESCENT LAKE    N/A     60  60  99 NW7         N/A
$$

...OBSERVATIONS IN NORTHERN NEBRASKA AND FAR SOUTHERN SOUTH DAKOTA...

CITY           SKY/WX    TMP DP  RH WIND       PRES   REMARKS
WINNER         FAIR      66  63  90 W6        29.83R
VALENTINE      CLOUDY    63  58  83 NW8       29.86R
THEDFORD       CLOUDY    60  59  96 W5        29.91R
AINSWORTH      CLOUDY    62  62  99 N8        29.88R
O`NEILL        CLOUDY    63  63 100 N9        29.82R FOG
ORD            LGT RAIN  63  60  90 W7        29.82R
BROKEN BOW     MOCLDY    62  62 100 NW6       29.83R
HALSEY           N/A     59  59  99 W6          N/A
BUTTE            N/A     63  62  97 N3          N/A
CHAMBERS         N/A     63  62  97 CALM        N/A
EWING            N/A     64  63  97 CALM        N/A
$$

...OBSERVATIONS IN SOUTHWEST NEBRASKA AND FAR NORTHEAST COLORADO...

CITY           SKY/WX    TMP DP  RH WIND       PRES   REMARKS
HOLYOKE        FAIR      61  59  94 W5        29.98R
IMPERIAL       CLOUDY    61  58  90 W10       29.93R
OGALLALA       CLOUDY    61  60  94 NW5       29.93R
NORTH PLATTE   CLOUDY    60  59  96 NW9       29.88R
MCCOOK         CLOUDY    61  61 100 NW12      29.85S
LEXINGTON      CLOUDY    62  60  94 NW8       29.82R
STAPLETON        N/A     57  56  97 CALM        N/A
GOTHENBURG       N/A     61  57  85 NW3         N/A
CALLAWAY         N/A     59  58  97 SW3         N/A
$$

...OBSERVATIONS IN CENTRAL LINCOLN COUNTY AREA...

CITY           SKY/WX    TMP DP  RH WIND       PRES   REMARKS
N.P. AIRPORT   CLOUDY    60  59  96 NW9       29.88R
N.P. DOWNTOWN    N/A     87  67  50 CALM        N/A
N.P. SOUTHEAST   N/A     59  58  95 N3          N/A
N.P. HILLCREST   N/A     59  58  96 NW7         N/A
$$

...SOME OBSERVATIONS FROM AROUND THE REGION...

CITY           SKY/WX    TMP DP  RH WIND       PRES   REMARKS
DENVER         CLOUDY    58  53  84 SE5       30.08R
LIMON          CLEAR     50  50 100 NW3       30.08R
ASPEN          CLOUDY    47  38  71 SW6       30.22R
LARAMIE        CLOUDY    45  43  93 CALM      30.17R
CASPER         CLEAR     47  45  93 W5        30.11S
CHEYENNE       CLOUDY    53  46  77 N7        30.10R
SCOTTSBLUFF    CLEAR     57  55  93 NW7       30.00R
GRAND ISLAND   LGT RAIN  63  63 100 S8        29.80R
OMAHA          CLOUDY    73  68  84 SE7       29.77S
SIOUX FALLS    LGT RAIN  65  65 100 E6        29.83F FOG
PIERRE         CLOUDY    65  63  93 N10       29.84R
RAPID CITY     MOCLDY    60  54  80 NW13      29.96R
BISMARCK       CLOUDY    61  59  93 NW10      29.90S
KANSAS CITY    LGT RAIN  74  72  93 SW3       29.84R
HILL CITY      CLOUDY    63  63 100 S5        29.86R
WICHITA        CLOUDY    73  72  96 S10       29.82R
DODGE CITY     PTCLDY    65  62  90 NE14      29.89R
OKLAHOMA CITY  CLOUDY    74  71  91 S10       29.82R
DALLAS         CLOUDY    81  74  79 S10       29.88R
AMARILLO       CLEAR     68  67  96 W10       29.92R
$$




USA.gov is the U.S. government's official web portal to all federal, state and local government web resources and services.